NOAA 17 DEB, 48717

Orbit data source: Space-Track

NOAA 17 DEB, 48717 is space debris in SSO originally from a launch on Mon, 24 Jun 2002 UTC launched from the Air Force Western Test Range (AFWTR). Debris objects in space refer to the collection of defunct objects orbiting the Earth. Examples of debris include non-operational satellites, rocket bodies, and fragments generated from explosions, collisions, or faulty payload assembly.

Loading next visibility...
Identifier
48717, 2002-032BA
Orbit
SSO
Country
Flag of USUS
Related business
Manufacturer
Unknown
Mission
Spacecraft
Bus & Motor
Unknown
Mass
Unknown
Launch date (UTC)
2002-06-24 (24 years ago)
Launch vehicle
Unknown
Launch site
Air Force Western Test Range (AFWTR)
Object type
Payload
Rocket body
Debris
Shape & HBR
Unknown shape, 0.1 m
Radar Cross Section
Medium (>0.1 m² and <1 m²)

Expand to show TLE details & history
Last TLE update: 3 days ago

TLE from 3 days ago
0 NOAA 17 DEB
1 48717U 02032BA  26170.43402506  .00006052  00000-0  13741-2 0  9995
2 48717  98.7693 165.5290 0004326 231.2020 128.8790 14.56393041275571
Epoch: 2026-06-19T10:24Z
TLE epoch observation values (Epoch: 2026-06-19T10:24:59.765Z)
Latitude
-0.00004°
Longitude
101.61693°
Altitude
709.731 km
Speed
7.5 km/s
True Right ascension
11h 02m 06s
True Declination
0° 00' 00"
Sunlit
Object was in daylight at epoch
Visualization orbit readout
Latitude
Unknown
Longitude
Unknown
Altitude
Unknown
Speed
Unknown
Apparent Right ascension
Unknown
Apparent Declination
Unknown
Sunlit
N/A
Visualization observer readout
Local Sidereal Time
21:37:51
Azimuth
Unknown
Elevation
Unknown
Doppler factor
Unknown
Orbital elements
Apogee altitude
705.02 km
Perigee altitude
698.895 km
Semi-major axis
7,080.095 km
Eccentricity
0.00043
Inclination
98.7693°
RAAN
165.529°
Arg. of periapsis
231.202°
True anomaly
128.91758°
Mean anomaly
128.879°
Eccentric anomaly
128.89829°
Mean motion
3.64321 °/min
Orbital period
98.81 mins
BSTAR
0.0013741
Loading maneuver chart data...
Computing Atmospheric mass density...

Documentation

Showing up to 5 results
|